Regional Weather Roundup
Issued by NWS Austin/San Antonio, TX

Home | Current Version | Previous Version | Text Only | Print | Product List | Glossary On
Versions: 1 2 3 4 5 6 7 8 9 10 11 12 13 14 15 16 17 18 19 20 21 22 23 24 25 26 27 28 29 30 31 32 33 34 35 36 37 38 39 40 41 42 43 44 45 46 47 48 49 50
000
ASUS44 KEWX 202010
RWREWX
SOUTH TEXAS REGIONAL WEATHER ROUNDUP
NATIONAL WEATHER SERVICE AUSTIN/SAN ANTONIO TX
300 PM CDT SUN MAY 20 2018

NOTE: "FAIR" INDICATED FEW OR NO CLOUDS BELOW 12,000 FEET WITH NO
SIGNIFICANT WEATHER AND/OR OBSTRUCTIONS TO VISIBILITY.

* - THESE STATIONS ARE NOT NWS OR FAA STATIONS...AND ARE NOT SUBJECT
    TO NWS AND FAA QUALITY CONTROL.

TXZ171-172-183>190-202100-
TEXAS HILL COUNTRY AND EDWARDS PLATEAU

CITY           SKY/WX    TMP DP  RH WIND       PRES   REMARKS
JUNCTION       LGT RAIN N/A N/A N/A SW8       30.10R
*LLANO         MOSUNNY   81  61  50 NE7       30.04F
BURNET         MOSUNNY   76  65  68 VRB3      30.02F
*HORSESHOE BAY MOSUNNY   79  65  61 CALM      30.02F
*KERRVILLE     CLOUDY    76  60  56 N13       30.04R
*FREDERICKSBRG MOSUNNY   76  58  53 NE6       30.04F
*ROCKSPRINGS   RAIN      63  59  88 NE14      30.13F
*BOERNE STAGE  CLOUDY    77  61  57 NE12G18   30.03R
*CASTROVILLE   CLOUDY    80  63  55 N17G26    29.97R
HONDO          CLOUDY    78  66  66 NE18G25   29.95F
*UVALDE        RAIN      71  62  75 NW41G54   29.99R
DEL RIO        MOSUNNY   71  67  87 E9        29.94F
LAUGHLIN AFB   PTSUNNY   69  65  86 E13       29.95F
CARRIZO SPRGS  PTSUNNY   86  68  54 SE3       29.91S
*EAGLE PASS    CLOUDY    70  63  78 N10G21    29.97R
*FAITH RANCH   CLOUDY    86  70  58 NE9       29.91S HX  90
$$

TXZ173-191>194-202-209-217>225-228-202100-
CENTRAL AND SOUTH CENTRAL TEXAS

CITY           SKY/WX    TMP DP  RH WIND       PRES   REMARKS
GEORGETOWN     CLOUDY    70  68  93 E6        30.03S
AUSTIN/BERGSTM CLOUDY    72  68  87 N12       30.02S THUNDER
AUSTIN/MABRY   CLOUDY    70  67  90 VRB5      30.02F
*AUSTIN/EXEC   CLOUDY    68  68 100 E7        30.04R
*LAGO VISTA    CLOUDY    75  69  80 NE7       30.03S
SAN MARCOS     MOSUNNY   72  70  93 N9        30.01F
NEW BRAUNFELS  TSTM      71  69  93 E5        29.99S FOG
RANDOLPH AFB   HVY RAIN  71  68  90 NE5       30.00S FOG
PT SAN ANTONIO TSTM      73  70  88 N15       29.95F
SAN ANTONIO    CLOUDY    79  66  64 NE14G22   30.01R
STINSON FIELD  CLOUDY    79  71  76 N15G21    29.93R
*LA GRANGE     TSTM      75  71  88 NW21G31   29.99R
*GIDDINGS      CLOUDY    71  67  89 N18G25    30.02R
*GONZALES      TSTM      77  67  71 SW9G25    29.98R
$$

TXZ163>164-176>182-195>201-210>213-226-227-235-202100-
SOUTHEAST TEXAS

CITY           SKY/WX    TMP DP  RH WIND       PRES   REMARKS
COLLEGE STN    LGT RAIN  73  71  93 NW15      30.01R FOG
*BRYAN         CLOUDY    73  73 100 N8        30.03R
*CALDWELL      CLOUDY    71  67  88 N14       30.02S
*CROCKETT      CLOUDY    72  66  83 W10       30.06R
*BRENHAM       TSTM      77  74  88 NW13G21   30.00R
HUNTSVILLE     TSTM      74  72  93 W3        30.02R
CONROE         TSTM      77  75  93 S17G25    30.00R FOG
HOUSTON BUSH   PTSUNNY   78  75  90 E17       29.96F
HOUSTON HOBBY  PTSUNNY   87  71  58 SE12G21   29.96S HX  93
*HOUSTON SW AP PTSUNNY   89  72  57 S12G20    29.97R HX  95
PEARLAND       PTSUNNY   89  71  55 S10G21    29.98F HX  95
HOUSTON HOOKS  PTSUNNY   75  72  90 E3        29.97F
ELLINGTON FLD  PTSUNNY   86  73  66 S16       29.99S HX  93
SUGAR LAND     PTSUNNY   92  69  47 S15       29.95S HX  97
*HOUSTON EXEC  PTSUNNY   88  72  58 S17       29.95F HX  94
*CLEVELAND MUN   N/A     86  67  52 S7        30.00R
*WHARTON       MOSUNNY   89  64  43 SE16G23   29.95F HX  90
*COLUMBUS      PTSUNNY   87  65  47 S13G20    29.94F
*EAGLE LAKE    CLOUDY    90  69  49 S15G21    29.94S HX  94
$$

TXZ214>216-236>238-202100-
THE UPPER TEXAS COAST

CITY           SKY/WX    TMP DP  RH WIND       PRES   REMARKS
*ORANGE        PTSUNNY   88  73  61 S12G17    30.00F HX  96
PORT ARTHUR    PTSUNNY   90  70  51 S12G22    29.98F HX  95
GALVESTON      FAIR      85  76  74 SE15      29.99F HX  94
ANGLETON       PTSUNNY   89  70  53 S20       29.97F HX  94
*BAY CITY      PTSUNNY   89  71  54 S18G24    29.95F HX  95
PALACIOS       MOSUNNY   87  75  67 S18       29.95F HX  96
$$

TXZ229>234-239>247-202100-
TEXAS COASTAL BEND AND RIO GRANDE PLAINS

CITY           SKY/WX    TMP DP  RH WIND       PRES   REMARKS
VICTORIA       MOSUNNY   92  67  43 S18G24    29.93F HX  95
*BEEVILLE      CLOUDY    88  69  52 SE17G24   29.90F HX  92
ROCKPORT       MOSUNNY   87  74  64 SE15      29.92F HX  95
*PORT ARANSAS  NOT AVBL
*PORT LAVACA   PTSUNNY   87  71  58 S16       29.94F HX  93
*INGLESIDE     MOSUNNY   89  73  59 S15G23    29.92F HX  97
CORPUS CHRISTI MOSUNNY   90  72  55 SE20G26   29.90F HX  97
CORPUS NAS     SUNNY     90  76  63 SE20G26   29.92S HX 101
*ROBSTOWN      MOSUNNY   90  71  53 SE20G25   29.90F HX  95
ALICE          CLOUDY    90  69  50 SE16      29.87F HX  94
KINGSVILLE NAS PTSUNNY   94  71  47 SE20G29   29.88F HX 101
COTULLA        CLOUDY    88  69  53 CALM      29.89F HX  92
LAREDO         PTSUNNY   94  65  38 SE12G22   29.85F HX  96
$$

TXZ248>255-202100-
DEEP SOUTH TEXAS

CITY           SKY/WX    TMP DP  RH WIND       PRES   REMARKS
BROWNSVILLE    PTSUNNY   90  74  59 SE15G29   29.88F HX  99
PORT ISABEL    FAIR      90  72  55 SE23G30   29.87F HX  97
*SOUTH PADRE   NOT AVBL
HARLINGEN      PTSUNNY   91  72  53 S21G30    29.86F HX  98
*HEBBRONVILLE  PTSUNNY   92  62  36 SE9       29.88F HX  92
MCALLEN        PTSUNNY   93  72  50 SE20G28   29.86F HX 101
*WESLACO       NOT AVBL
FALFURRIAS     PTSUNNY   91  69  47 E14G21    29.85F HX  96
EDINBURG       PTSUNNY   94  67  42 SE16G25   29.86F HX  97
*ZAPATA        PTSUNNY   92  65  40 S12       29.84F HX  93
$$

TXZ213>215-236>238-242>244-246-247-251-254-255-202100-
CMAN STATIONS

STATION/POSITION TIME  TEMP    WIND        PRES    WAVE
                       AIR SEA DIR/SP/G            HT/PER
                 (UTC) (F)     (DEG/KT/KT) (MB)    (FT/S)
SABINE PASS      1948   82 84  140/ 12/ 14 1017.3
SEA RIM ST PARK  2000   83     150/ 11/ 13 1016.2
NORTH JETTY/GLS  1936   80 80  150/ 13/ 15 1015.1
EAGLE POINT      1948   82 84  150/ 14/ 19 1015.1
MORGANS POINT    1948   83 83  130/ 13/ 18 1015.5
PORT O`CONNOR    1948   80 82  150/ 11/ 15 1013.9
PORT ARANSAS     2000   80 83  110/ 12/ 13 1013.3
MALAQUITE BEACH  1948   80 83  110/ 12/ 13 1012.8
BAFFIN BAY       1948   81 86  110/ 15/ 20 1012.9
PORT ISABEL      1948   83 81  160/  8/ 13 1012.3
$$




USA.gov is the U.S. government's official web portal to all federal, state and local government web resources and services.